Dewpoint
56 56 57 57 57 57 57 57 57 58 58 58 58 58 58 58 59 59 59 58 58 57 58 59 59 58 58 57 57 58 57 55 53 50 50 39 52 59 65 64 67 70 72 57 48 43 34 39 36 41 43 45 45 47 48 49 43 40 43 40 41 37 36 39 39 43 40 39 41 42 44 43 43 45 50 54 55 55 55 54 56 57 58 61 63 65 67 69
56 56 56 56 56 56 57 57 57 57 58 58 58 58 58 58 58 58 58 58 57 57 58 59 59 58 58 57 58 58 57 55 52 50 46 47 63 63 67 67 69 72 69 48 39 39 41 37 36 37 42 42 49 45 48 46 44 40 40 39 37 37 37 40 41 41 42 41 42 42 43 44 44 46 49 52 52 52 52 53 55 58 61 63 63 65 66 67
56 56 56 56 56 56 57 57 57 57 57 57 58 58 58 58 58 58 58 58 57 57 58 59 59 58 57 58 58 58 56 53 52 39 32 62 65 65 65 68 71 74 51 40 43 40 39 37 35 31 33 36 41 41 46 43 43 42 36 37 37 37 38 41 42 41 43 43 42 42 43 44 45 46 47 47 50 51 51 54 57 58 60 62 64 65 65 66
56 56 56 56 56 56 57 57 57 57 57 57 57 57 57 58 58 58 57 57 57 57 57 59 59 57 57 58 58 57 54 53 28 29 35 72 71 67 66 67 71 72 51 43 42 40 40 35 33 36 35 34 33 39 38 37 37 32 36 29 33 37 39 41 42 43 43 44 44 44 45 45 45 46 49 52 52 52 54 56 57 59 62 64 64 65 65 66
55 55 56 56 56 56 57 57 57 57 57 57 57 57 57 57 57 57 57 57 57 57 57 59 58 58 58 58 57 56 52 12 15 33 47 72 74 71 67 69 72 64 51 47 44 40 40 36 34 36 36 32 32 32 33 33 31 23 29 33 37 39 39 41 41 45 45 45 45 44 45 47 48 52 53 54 54 54 55 56 58 61 63 64 64 65 65 65
55 55 55 56 56 56 56 57 57 57 56 56 56 57 57 57 57 57 57 57 57 56 57 59 58 58 58 58 57 55 31 7 26 33 76 71 70 73 68 70 72 59 52 46 43 40 37 36 35 41 30 27 26 27 30 29 25 31 32 37 40 40 39 40 43 45 45 44 45 46 47 48 49 50 53 55 55 55 56 57 59 62 64 64 65 65 64 64
55 55 55 55 56 56 56 56 56 56 56 56 56 56 57 57 57 56 56 56 56 56 57 59 59 58 58 58 55 52 42 27 34 35 67 70 72 70 70 72 72 52 48 43 41 37 38 34 36 37 34 29 27 25 26 29 24 22 32 38 39 40 40 40 43 44 44 46 46 48 49 47 47 47 50 52 55 56 56 58 59 61 63 64 64 64 64 64
54 54 55 55 55 56 56 56 56 56 56 56 56 57 56 56 56 56 56 56 56 56 57 59 58 58 58 55 53 41 44 39 38 42 69 74 69 69 68 63 54 50 45 40 36 37 37 33 32 36 31 29 27 26 26 27 27 28 34 38 39 40 39 40 43 46 48 49 50 50 50 51 51 51 54 54 56 56 57 58 59 60 60 61 63 65 65 65
54 54 54 55 55 55 56 56 56 56 56 56 56 56 56 56 56 56 56 56 56 56 57 59 58 58 58 56 46 27 14 30 31 63 70 62 63 59 50 47 49 44 42 42 41 37 33 31 32 32 31 27 26 25 27 25 26 29 32 33 34 38 42 44 45 47 47 48 50 51 51 52 53 55 55 55 56 57 57 58 58 58 58 59 62 63 64 64
54 54 54 54 55 55 55 55 56 55 56 55 56 56 55 55 55 56 56 56 56 56 58 59 58 58 56 54 42 12 8 29 33 64 58 57 57 49 40 42 43 39 32 31 38 37 34 31 31 35 34 29 28 24 26 19 24 30 31 33 37 39 41 44 44 46 48 49 50 50 51 51 53 54 53 56 56 57 57 57 57 57 57 58 60 60 62 61
53 54 54 55 55 55 55 55 56 55 56 56 56 55 55 55 55 56 56 56 56 56 58 59 58 57 55 53 31 16 24 35 53 55 51 51 47 43 38 39 39 34 31 30 33 35 35 34 34 32 34 29 24 22 20 20 25 27 31 32 34 38 41 43 44 46 48 49 51 51 50 51 53 54 54 55 56 56 56 56 56 56 57 57 59 60 61 61
53 53 54 55 55 54 54 55 55 55 55 56 55 55 55 55 55 55 56 56 57 57 58 59 59 54 55 53 42 20 31 45 40 42 45 45 38 38 37 35 36 30 30 25 27 30 33 32 35 35 29 28 24 24 17 22 25 26 30 31 37 39 40 42 43 45 47 48 50 50 49 50 51 52 54 55 56 56 55 55 55 55 57 57 58 59 60 60
53 54 54 54 54 54 55 54 55 55 55 55 55 55 55 55 55 55 56 56 57 58 59 59 59 57 55 35 40 39 34 33 30 27 30 37 36 35 34 32 36 32 29 25 25 27 27 28 31 30 29 29 24 21 25 25 27 28 29 34 36 36 38 40 42 44 45 47 49 49 45 47 51 53 54 56 56 56 55 55 55 55 57 57 58 58 59 61
53 53 54 54 54 54 54 54 55 55 54 54 54 54 54 54 54 55 56 56 57 58 59 60 58 57 55 41 34 41 40 38 36 35 30 32 33 28 29 27 29 33 33 28 26 27 30 23 27 26 27 23 20 29 27 25 28 26 28 29 29 30 33 38 41 42 43 46 47 47 44 46 51 53 54 55 56 55 55 55 55 56 57 58 58 58 59 62
53 53 53 54 54 54 54 54 54 54 54 54 54 54 53 53 54 56 57 57 58 59 60 60 58 57 55 51 50 50 68 56 43 39 34 31 30 26 25 26 25 26 27 29 28 28 27 24 23 18 15 21 24 30 23 22 28 27 25 26 28 29 33 37 43 42 42 44 46 47 46 47 50 53 54 55 55 55 55 55 55 57 58 58 58 58 59 61
53 53 54 54 54 54 54 54 54 53 54 53 53 53 54 54 55 56 56 57 59 60 60 57 57 56 51 43 43 57 47 45 43 45 43 33 29 22 24 24 25 23 24 22 24 24 21 22 17 15 16 19 22 27 24 26 25 28 26 32 27 31 33 35 40 42 43 43 46 46 45 46 48 53 54 54 54 55 54 55 55 58 58 58 58 58 60 61
53 53 53 53 54 54 54 53 53 54 53 53 53 53 54 54 56 57 59 59 58 59 59 53 56 55 42 44 46 40 41 41 41 37 35 33 26 20 21 23 20 19 19 19 20 21 19 20 21 22 21 20 26 22 24 25 30 26 32 29 29 31 31 33 35 41 42 43 42 47 46 47 48 51 53 53 54 54 54 54 55 58 59 59 59 59 62 62
52 53 53 53 54 54 53 53 53 53 52 52 52 51 50 54 56 57 57 58 58 58 57 57 55 48 40 46 37 38 41 38 40 34 32 33 25 22 18 18 18 16 21 18 19 18 19 14 15 15 28 29 28 25 24 21 23 28 32 31 26 30 32 32 34 38 40 42 43 45 47 47 48 50 51 51 53 53 53 54 56 58 59 59 59 59 62 62
52 53 53 53 53 53 53 53 52 52 52 52 51 52 55 57 55 55 55 55 55 53 40 51 47 31 16 26 43 42 41 41 36 32 28 26 32 27 17 19 18 16 17 16 14 15 18 14 25 31 21 26 26 22 21 19 25 28 29 29 28 28 30 31 34 37 39 41 43 44 45 47 47 49 50 50 52 51 52 54 55 57 58 59 59 60 61 61
52 53 53 53 53 53 53 53 53 52 51 50 48 49 53 39 36 44 53 54 53 43 36 34 44 36 34 33 33 33 38 41 31 28 27 26 29 28 19 15 17 17 15 12 15 12 23 14 16 22 24 25 26 24 22 21 27 29 29 29 29 28 30 31 33 35 38 42 42 44 45 47 47 49 49 49 50 50 50 52 53 56 56 57 58 59 60 61
52 53 53 53 52 53 52 52 52 51 51 49 48 45 30 30 30 27 33 35 45 48 45 43 40 41 38 37 37 37 35 36 32 25 25 28 28 27 24 13 12 12 13 13 12 22 20 21 22 25 26 26 26 26 24 26 23 29 28 28 29 28 28 30 31 35 36 37 40 44 45 46 47 48 48 49 48 48 49 50 52 55 55 56 57 58 59 60
52 52 53 53 53 52 52 52 51 51 51 48 49 42 41 40 37 35 36 33 33 34 42 45 43 42 43 42 42 41 39 36 31 19 21 23 26 25 22 14 12 12 17 16 16 22 20 16 18 25 27 27 27 26 26 27 20 23 28 28 28 29 30 32 33 33 33 36 40 44 44 45 47 47 48 48 48 49 49 50 52 54 54 55 57 59 59 60
52 52 52 52 52 52 51 51 50 50 49 49 36 33 38 44 43 35 34 32 30 33 33 34 35 38 37 38 39 40 38 37 32 18 19 23 26 25 16 16 13 13 13 12 10 18 23 21 20 25 25 25 25 25 25 23 21 18 19 27 28 32 28 29 31 31 32 37 41 44 43 45 46 47 47 47 47 49 50 51 52 54 54 55 57 59 59 61
52 52 52 52 52 51 52 50 50 50 48 38 35 35 30 32 33 32 33 30 29 30 33 35 37 37 36 35 36 35 34 32 30 18 24 24 24 24 15 15 12 11 11 11 10 15 22 23 24 24 24 25 24 24 24 21 20 18 19 22 25 28 28 29 31 29 34 40 43 42 43 44 45 44 46 47 47 48 49 51 52 54 55 56 58 59 59 61
52 52 52 52 51 51 50 50 48 41 42 37 26 25 25 29 36 37 33 30 33 33 35 33 35 34 34 36 35 29 29 29 27 22 24 24 21 20 16 17 12 10 9 10 10 12 17 20 25 23 23 24 23 23 22 20 19 16 17 20 21 26 27 30 30 28 32 39 40 40 38 40 42 43 44 45 44 47 49 49 51 54 55 56 57 58 59 62
52 52 52 52 52 51 49 38 44 45 42 32 20 21 33 35 36 40 34 34 28 28 35 30 36 34 36 32 31 31 29 27 27 24 24 23 26 20 18 12 13 9 8 8 8 15 9 12 22 22 22 23 22 21 22 20 17 15 18 19 18 20 26 30 28 28 34 37 39 40 37 37 42 41 42 43 42 46 47 48 50 53 55 56 57 58 58 61
52 52 52 51 51 50 40 32 45 44 31 18 19 36 35 36 38 38 30 31 31 34 33 37 29 29 33 29 29 26 23 24 25 25 23 29 20 21 13 10 11 16 9 15 20 7 12 12 15 22 22 21 21 20 20 18 16 15 18 21 18 18 26 29 28 27 32 37 38 38 39 38 38 40 42 42 41 43 45 47 49 52 54 55 57 58 58 60
52 52 51 51 50 50 47 46 46 43 38 29 39 37 37 35 34 39 34 30 26 38 35 25 27 30 29 27 27 26 25 25 22 23 22 23 22 18 18 9 5 6 8 8 6 19 10 12 14 17 20 20 19 20 20 20 14 16 16 18 17 17 23 28 28 27 30 35 36 37 43 40 38 42 46 43 40 42 44 47 49 51 53 55 56 58 58 60
52 52 52 51 51 50 49 47 46 43 43 42 40 38 37 31 34 34 33 25 28 33 29 23 26 29 27 28 26 25 24 24 25 22 22 21 21 19 16 15 6 5 9 8 9 14 13 13 15 16 18 18 20 18 18 21 13 14 15 20 18 18 22 28 27 27 31 34 34 35 37 36 39 47 44 50 40 41 42 45 48 51 53 54 55 57 58 60
52 52 51 51 49 46 48 48 47 46 43 41 39 39 34 27 34 31 29 25 34 28 25 25 23 22 25 24 25 25 23 24 25 20 19 18 19 17 18 18 13 7 6 10 10 13 13 25 27 17 17 19 19 18 18 16 16 18 18 14 14 23 29 35 33 33 31 27 31 34 36 32 33 43 42 46 44 42 43 45 47 50 52 54 54 55 58 60
51 51 51 51 47 46 45 38 37 42 47 45 40 33 27 34 36 31 27 28 26 24 25 23 21 24 21 23 23 24 24 22 21 17 15 17 16 16 16 13 18 16 14 9 8 9 11 13 17 18 22 20 19 18 18 19 18 16 17 16 17 23 28 31 32 34 25 24 32 31 34 33 29 35 44 45 44 43 43 44 46 48 51 53 54 54 57 60
50 50 51 49 48 48 41 30 29 37 40 40 38 30 26 28 29 27 25 33 27 30 21 19 20 22 20 22 23 23 23 23 23 15 14 14 14 14 13 12 14 11 13 15 9 11 8 9 14 15 28 19 18 17 17 17 18 16 16 23 16 24 21 16 21 20 19 18 26 30 33 33 31 36 42 44 45 45 44 45 46 48 50 52 52 53 57 60
49 49 50 50 50 48 48 42 39 41 43 40 39 28 24 30 26 27 26 26 24 26 22 24 21 22 21 20 20 22 23 22 22 19 13 13 13 13 12 11 16 12 13 20 12 10 10 12 12 13 16 23 17 15 16 16 17 15 16 26 20 19 17 16 25 25 24 25 28 24 27 27 33 32 41 43 44 45 45 45 46 48 50 51 51 52 56 60
49 49 48 48 47 48 48 49 48 47 43 49 40 27 26 26 26 40 24 25 22 24 25 24 24 24 20 18 19 21 21 23 22 20 13 12 11 11 11 11 14 22 14 18 10 10 10 10 12 12 12 18 17 16 16 16 16 18 17 16 23 27 21 18 23 15 15 18 20 28 21 26 18 25 39 44 45 45 46 46 47 48 49 51 51 51 56 59
49 48 47 46 48 49 48 49 47 47 44 45 29 24 21 21 26 25 26 26 26 26 25 25 23 23 21 18 18 20 21 20 21 20 13 12 11 11 10 11 13 15 18 14 15 20 10 13 21 16 14 14 14 17 17 15 15 14 14 27 22 20 32 16 28 26 27 22 18 28 25 32 25 38 48 46 46 48 49 48 49 49 49 50 50 50 54 59
47 43 45 44 48 48 48 48 47 46 44 35 24 25 17 19 21 23 23 27 23 23 22 21 19 17 18 16 23 20 22 22 21 22 17 14 13 13 13 13 13 13 14 15 22 16 18 13 14 21 15 12 12 16 16 15 14 18 13 14 18 24 20 28 37 30 33 27 22 39 31 31 37 39 45 49 48 48 49 48 48 49 49 50 50 50 52 57
45 46 41 44 45 46 49 48 46 45 44 30 19 12 14 18 21 26 35 26 25 23 22 18 19 19 17 17 19 20 21 21 20 21 18 16 14 14 14 14 15 14 14 15 20 16 13 18 16 14 15 14 12 15 14 15 22 18 12 15 24 28 25 24 20 31 25 22 27 29 24 27 30 31 46 47 48 48 48 48 47 48 49 50 50 51 52 54
46 45 48 48 46 45 48 47 45 44 42 32 14 35 28 15 18 20 23 22 22 22 20 22 20 22 18 18 15 18 20 20 16 20 18 16 16 16 15 14 15 14 15 15 16 21 14 13 12 13 14 14 15 13 12 15 17 12 12 21 12 20 18 29 27 20 22 23 23 25 28 30 31 35 43 46 47 47 48 48 47 48 49 50 50 51 52 53
46 47 37 29 45 48 47 46 44 43 38 28 21 24 32 25 22 20 23 23 22 20 19 21 19 25 19 18 18 19 17 19 14 15 16 16 16 17 15 15 14 15 15 16 14 17 19 12 18 20 14 15 15 13 12 11 17 22 18 17 23 20 23 24 21 27 24 26 25 22 27 24 35 34 43 44 46 47 47 47 47 47 48 49 49 50 52 53
44 39 30 31 47 48 47 45 42 40 34 19 18 19 24 18 17 18 19 19 19 20 19 19 20 18 18 18 18 17 21 16 12 12 13 18 15 18 16 16 14 14 14 16 15 17 16 17 14 25 22 15 14 14 12 13 13 13 16 17 18 26 25 20 34 25 21 26 24 25 22 32 39 41 43 44 45 46 46 47 47 48 49 49 49 49 51 52
45 42 37 45 47 47 45 41 36 33 31 33 29 23 20 16 16 16 17 21 20 21 19 19 18 16 16 16 16 17 17 15 12 11 12 16 15 18 17 15 14 13 14 14 13 15 19 17 14 20 17 16 16 15 13 13 14 14 15 15 15 18 19 14 18 29 28 22 23 18 18 30 37 46 46 44 45 45 46 46 47 47 48 49 48 48 50 51
44 32 29 40 39 41 38 36 36 37 34 29 21 23 19 32 21 18 17 15 15 16 20 20 19 19 19 19 18 18 17 18 15 11 14 14 16 15 15 16 15 13 13 13 12 13 16 30 22 16 14 14 15 15 15 15 15 16 14 14 16 18 23 19 16 21 25 23 32 28 26 29 43 44 44 45 44 43 44 45 46 46 46 46 47 47 50 51
39 33 35 32 33 34 33 35 40 42 32 31 31 29 27 26 23 21 18 16 15 18 18 18 18 18 19 19 18 17 19 20 26 16 13 14 17 15 15 16 15 13 12 12 12 12 45 18 26 25 30 23 17 16 15 18 16 15 16 16 16 16 18 18 25 31 20 29 21 24 26 28 40 45 42 41 41 38 40 42 43 42 42 43 45 48 51 54
41 39 39 41 41 36 33 32 35 33 32 31 30 28 28 26 23 21 18 16 15 15 16 18 18 18 17 17 18 20 24 22 26 25 26 22 14 17 15 15 14 12 11 14 11 22 19 21 20 25 20 19 19 20 15 18 17 16 18 16 16 16 15 21 30 37 26 29 23 21 19 29 39 51 40 40 38 36 35 36 38 36 39 41 45 50 53 56
42 43 41 43 48 38 29 30 34 36 36 34 32 31 29 27 26 24 21 19 18 16 17 17 17 17 16 16 16 15 17 23 21 22 21 17 15 18 16 14 15 12 12 21 46 15 17 30 21 16 21 18 18 17 17 17 18 18 21 15 16 14 15 18 18 28 22 33 32 26 28 33 39 42 39 38 36 34 31 32 36 36 42 45 49 52 55 57
40 37 38 37 33 33 37 32 26 25 28 31 29 29 29 28 28 27 22 18 18 17 16 17 17 17 18 17 16 19 24 26 24 26 28 35 37 35 24 18 14 12 36 51 46 19 26 37 25 24 22 22 23 28 29 30 20 15 14 14 14 14 15 18 29 28 22 30 29 31 34 33 37 36 34 33 33 30 30 35 38 40 46 50 51 53 56 57
42 41 36 31 32 34 30 32 30 29 29 30 30 29 28 29 29 26 24 22 20 17 16 18 23 23 26 25 22 23 25 27 33 34 34 36 39 37 35 35 27 30 50 47 45 16 33 24 28 28 25 26 28 34 33 23 15 14 14 13 15 14 15 17 19 20 31 28 22 34 38 33 35 35 32 32 33 32 33 36 38 41 45 48 50 52 61 57
40 42 36 33 30 29 29 29 28 28 32 32 30 29 29 30 31 30 25 21 22 24 25 33 28 25 28 29 30 25 38 41 39 35 43 40 39 34 33 34 29 45 54 36 38 18 26 17 25 24 21 20 20 27 31 20 15 15 14 14 14 16 16 15 27 20 34 25 24 31 38 35 34 32 30 31 33 32 33 38 37 40 43 45 48 50 55 56
43 40 38 37 32 32 32 31 32 33 33 31 32 31 29 30 30 31 30 26 23 23 29 29 30 32 36 36 36 34 45 41 39 48 46 37 35 37 32 33 33 33 30 33 33 36 22 18 27 21 22 22 23 24 25 19 16 14 15 15 15 15 16 15 19 28 28 32 29 33 38 37 33 31 29 30 33 32 36 38 38 41 43 46 45 47 52 57
41 40 40 41 38 36 35 34 35 35 34 39 39 32 31 32 30 27 28 27 23 20 30 29 34 32 33 37 39 34 42 43 43 43 47 43 36 41 35 36 32 31 30 31 32 33 16 29 33 20 22 21 23 25 23 20 19 16 15 15 16 15 15 16 15 22 33 32 34 34 38 39 37 31 30 34 40 40 40 38 37 40 45 47 46 45 48 58
42 42 42 41 38 36 39 37 37 37 36 37 36 35 34 27 24 24 24 30 34 33 34 33 32 37 40 41 42 40 40 42 42 38 39 41 38 38 37 38 31 31 32 34 32 37 18 29 33 25 23 23 25 19 19 18 17 16 17 19 20 20 22 27 24 20 34 35 36 35 36 36 37 43 43 44 41 38 37 38 39 42 44 46 47 46 46 51
44 44 43 42 38 41 35 37 37 37 37 37 35 35 33 28 24 24 38 39 40 38 38 37 35 40 47 43 39 36 36 35 35 37 38 38 37 36 35 33 32 34 38 36 36 31 22 28 22 24 19 27 24 18 18 19 20 23 22 20 24 30 27 29 35 41 39 32 39 37 33 34 36 43 40 42 37 37 38 38 40 43 44 45 45 45 46 51